THORAD AGENA D DEB, 4654

Orbit data source: Space-Track

THORAD AGENA D DEB, 4654 is space debris in SSO originally from a launch on Wed, 08 Apr 1970 UTC launched from the Air Force Western Test Range (AFWTR). Debris objects in space refer to the collection of defunct objects orbiting the Earth. Examples of debris include non-operational satellites, rocket bodies, and fragments generated from explosions, collisions, or faulty payload assembly.

Loading next visibility...
Identifier
4654, 1970-025AN
Orbit
SSO
Last TLE update
16 hours ago
Origin
Manufacturer
Unknown
Mission
Spacecraft
Bus & Motor
Unknown
Mass
Unknown
Launch date (UTC)
1970-04-08 (55 years ago)
Launch vehicle
Unknown
Launch site
Air Force Western Test Range (AFWTR)
Object type
Payload
Rocket body
Debris
Shape & HBR
Unknown
Radar Cross Section
Small (<0.1 m²)

Expand to show TLE details & history

TLE from 16 hours ago
0 THORAD AGENA D DEB
1 04654U 70025AN  25128.56816343  .00003589  00000-0  18969-2 0  9997
2 04654 100.0060 246.9409 0029324 105.4926 254.9484 14.14329597782692
Epoch: 2025-05-08T13:38Z
Definitive object data (Epoch: 2025-05-08T13:38:09.32Z)
Latitude
-0.00005°
Longitude
175.76528°
Altitude
853.015 km
Speed
7.423 km/s
True Right ascension
16h 27m 45s
True Declination
0° 00' 00"
Sunlit
Object was in full shadow at TLE epoch
Visualization TLE readout
Latitude
52.64317°
Longitude
9.79663°
Altitude
833.5 km
Speed
7.451 km/s
Apparent Right ascension
03h 24m 47s
Apparent Declination
11° 18' 24"
Sunlit
Object is in daylight
Visualization observer readout
Local Sidereal Time
13:39:14
Azimuth
328.602° NNW
Elevation
-33.225°
Doppler factor
1
Orbital elements
Apogee altitude
862.998 km
Perigee altitude
820.654 km
Semi-major axis
7,219.963 km
Eccentricity
0.0029324
Inclination
100.006°
RAAN
246.9409°
Arg. of periapsis
105.4926°
True anomaly
254.62421°
Mean anomaly
254.9484°
Eccentric anomaly
254.78627°
Mean motion
3.53786 °/min
BSTAR
0.0018969
Orbital period
101.76 mins
Loading maneuver chart data...
Loading SW <> Apogee altitude chart data...

THORAD AGENA D DEB Visibility forecast

Observer location: undefined°, undefined°

Span
Click to sort rows by Start time (UTC) header in descending order
Start Az.
Max El. time (UTC)
Max El. Az.
Max El.
End time (UTC)
End Az.
8 mins2025-05-09 06:45:33.384Z117.134° SE2025-05-09 06:49:33.384Z62.196° ENE25.015°2025-05-09 06:53:33.384Z10.009° NNE
8 mins2025-05-09 08:26:33.384Z204.576° SW2025-05-09 08:29:33.384Z257.024° W31.586°2025-05-09 08:34:33.384Z327.717° NNW
8 mins2025-05-09 20:47:33.384Z18.837° NNE2025-05-09 20:51:33.384Z163.432° S43.941°2025-05-09 20:55:33.384Z192.519° SSW
|